TimeEST,TemperatureF,Dew PointF,Humidity,Sea Level PressureIn,VisibilityMPH,Wind Direction,Wind SpeedMPH,Gust SpeedMPH,PrecipitationIn,Events,Conditions,WindDirDegrees,DateUTC
12:52 AM,16.0,3.9,59,29.95,10.0,Calm,Calm,-,N/A,,Overcast,0,2013-02-05 05:52:00
1:52 AM,16.0,3.9,59,29.96,10.0,Calm,Calm,-,N/A,,Overcast,0,2013-02-05 06:52:00
2:52 AM,17.1,3.0,54,29.95,10.0,Calm,Calm,-,N/A,,Overcast,0,2013-02-05 07:52:00
3:52 AM,17.1,3.0,54,29.95,10.0,West,3.5,-,N/A,,Overcast,280,2013-02-05 08:52:00
4:52 AM,16.0,6.1,65,29.94,10.0,Calm,Calm,-,N/A,,Overcast,0,2013-02-05 09:52:00
5:52 AM,16.0,5.0,62,29.96,10.0,Calm,Calm,-,N/A,,Overcast,0,2013-02-05 10:52:00
6:52 AM,16.0,5.0,62,29.98,10.0,Calm,Calm,-,N/A,,Overcast,0,2013-02-05 11:52:00
7:52 AM,16.0,5.0,62,30.01,10.0,Calm,Calm,-,N/A,,Overcast,0,2013-02-05 12:52:00
8:52 AM,18.0,3.9,54,30.01,10.0,NW,3.5,-,N/A,,Overcast,310,2013-02-05 13:52:00
9:52 AM,19.9,3.0,48,30.02,10.0,Variable,4.6,-,N/A,,Overcast,0,2013-02-05 14:52:00
10:52 AM,19.9,3.0,48,30.01,10.0,WSW,6.9,-,N/A,,Partly Cloudy,240,2013-02-05 15:52:00
11:52 AM,21.9,3.9,46,29.98,10.0,SW,3.5,-,N/A,,Clear,220,2013-02-05 16:52:00
12:52 PM,25.0,5.0,43,29.95,10.0,NW,4.6,-,N/A,,Clear,310,2013-02-05 17:52:00
1:52 PM,26.1,6.1,43,29.94,10.0,South,3.5,-,N/A,,Clear,170,2013-02-05 18:52:00
2:52 PM,27.0,6.1,41,29.92,10.0,East,3.5,-,N/A,,Clear,100,2013-02-05 19:52:00
3:52 PM,28.0,6.1,39,29.91,10.0,Calm,Calm,-,N/A,,Clear,0,2013-02-05 20:52:00
4:52 PM,27.0,7.0,43,29.90,10.0,Calm,Calm,-,N/A,,Clear,0,2013-02-05 21:52:00
6:52 PM,25.0,9.0,51,29.91,10.0,Calm,Calm,-,N/A,,Mostly Cloudy,0,2013-02-05 23:52:00
7:52 PM,25.0,10.9,55,29.92,10.0,Calm,Calm,-,N/A,,Overcast,0,2013-02-06 00:52:00
8:52 PM,26.1,12.0,55,29.91,10.0,East,4.6,-,N/A,,Overcast,90,2013-02-06 01:52:00
9:52 PM,25.0,12.9,60,29.91,10.0,ENE,4.6,-,N/A,,Mostly Cloudy,70,2013-02-06 02:52:00
10:52 PM,24.1,14.0,65,29.91,10.0,Calm,Calm,-,N/A,,Overcast,0,2013-02-06 03:52:00
11:52 PM,26.1,15.1,63,29.91,10.0,East,4.6,-,N/A,,Overcast,90,2013-02-06 04:52:00